FW6073 Weather Reports


time (UTC)temp
C
wind
direction
speed
KPH
gust
KPH
rain 1hr
cm
rain 24hr
cm
rain mn
cm
humidity
%
barometer
mb
20260503185102 17 230 6.4 17.7 0.00 0.00 0.00 37 1009.7
20260503185002 17 228 4.8 17.7 0.00 0.00 0.00 38 1009.7
20260503184902 17 233 4.8 16.1 0.00 0.00 0.00 39 1009.7
20260503184802 17 236 4.8 16.1 0.00 0.00 0.00 37 1009.6
20260503184702 17 236 4.8 16.1 0.00 0.00 0.00 36 1009.7
20260503184602 17 241 3.2 14.5 0.00 0.00 0.00 36 1009.7
20260503184502 17 237 3.2 11.3 0.00 0.00 0.00 37 1009.9
20260503184403 17 239 3.2 11.3 0.00 0.00 0.00 36 1009.9
20260503184302 17 239 3.2 12.9 0.00 0.00 0.00 39 1009.9
20260503184202 17 232 3.2 12.9 0.00 0.00 0.00 39 1009.9
20260503184102 17 226 3.2 12.9 0.00 0.00 0.00 38 1009.9
20260503184002 17 224 3.2 12.9 0.00 0.00 0.00 38 1009.9
20260503183902 17 225 3.2 12.9 0.00 0.00 0.00 39 1009.9
20260503183802 17 226 3.2 12.9 0.00 0.00 0.00 38 1009.9
20260503183702 17 227 4.8 12.9 0.00 0.00 0.00 38 1009.9
20260503183602 17 228 4.8 12.9 0.00 0.00 0.00 39 1009.9
20260503183502 17 228 3.2 12.9 0.00 0.00 0.00 37 1009.8
20260503183402 17 229 3.2 12.9 0.00 0.00 0.00 39 1010.0
20260503183302 17 228 3.2 11.3 0.00 0.00 0.00 38 1010.0
20260503183202 17 234 3.2 11.3 0.00 0.00 0.00 41 1009.9
20260503183123 17 239 3.2 8.0 0.00 0.00 0.00 37 1009.9
20260503183002 17 242 3.2 9.7 0.00 0.00 0.00 37 1009.9
20260503182902 17 237 3.2 9.7 0.00 0.00 0.00 38 1010.0
20260503182802 17 234 3.2 9.7 0.00 0.00 0.00 38 1010.0
20260503182723 17 235 3.2 9.7 0.00 0.00 0.00 38 1010.0
20260503182602 17 237 3.2 9.7 0.00 0.00 0.00 38 1010.1
20260503182502 17 239 3.2 9.7 0.00 0.00 0.00 38 1010.1
20260503182402 17 237 4.8 17.7 0.00 0.00 0.00 40 1010.2
20260503182323 17 239 4.8 17.7 0.00 0.00 0.00 38 1010.2
20260503182223 17 244 4.8 17.7 0.00 0.00 0.00 36 1010.0
20260503182102 17 241 4.8 17.7 0.00 0.00 0.00 37 1010.1
20260503182002 17 243 4.8 17.7 0.00 0.00 0.00 39 1010.1
20260503181902 17 246 3.2 17.7 0.00 0.00 0.00 40 1010.1
20260503181802 17 254 3.2 17.7 0.00 0.00 0.00 37 1010.1
20260503181723 17 254 3.2 17.7 0.00 0.00 0.00 37 1010.1
20260503181623 17 251 3.2 17.7 0.00 0.00 0.00 36 1010.1
20260503181503 17 257 3.2 17.7 0.00 0.00 0.00 38 1010.0
20260503181402 17 261 3.2 12.9 0.00 0.00 0.00 39 1010.2
20260503181323 16 262 3.2 9.7 0.00 0.00 0.00 40 1010.2
20260503181202 16 256 3.2 9.7 0.00 0.00 0.00 42 1010.2
20260503181102 16 258 3.2 9.7 0.00 0.00 0.00 40 1010.1
20260503181023 16 270 3.2 9.7 0.00 0.00 0.00 40 1010.1
20260503180902 16 262 3.2 9.7 0.00 0.00 0.00 38 1010.3
20260503180823 16 256 3.2 9.7 0.00 0.00 0.00 39 1010.3
20260503180702 16 251 3.2 9.7 0.00 0.00 0.00 40 1010.3
20260503180602 16 251 3.2 8.0 0.00 0.00 0.00 39 1010.2
20260503180502 16 244 3.2 12.9 0.00 0.00 0.00 39 1010.2
20260503180402 16 243 3.2 12.9 0.00 0.00 0.00 40 1010.3
20260503180302 16 241 3.2 12.9 0.00 0.00 0.00 39 1010.4
20260503180202 16 243 3.2 12.9 0.00 0.00 0.00 39 1010.4
20260503180003 16 231 3.2 12.9 0.00 0.00 0.00 40 1010.4
20260503175923 16 228 3.2 12.9 0.00 0.00 0.00 44 1010.5
20260503175823 16 231 3.2 12.9 0.00 0.00 0.00 43 1010.5
20260503175702 16 231 3.2 12.9 0.00 0.00 0.00 40 1010.5
20260503175602 16 230 3.2 12.9 0.00 0.00 0.00 41 1010.6
20260503175523 16 229 3.2 12.9 0.00 0.00 0.00 39 1010.6
20260503175402 16 229 3.2 11.3 0.00 0.00 0.00 42 1010.5
20260503175304 16 226 3.2 11.3 0.00 0.00 0.00 40 1010.6
20260503175202 16 222 3.2 11.3 0.00 0.00 0.00 39 1010.6
20260503175102 16 224 3.2 11.3 0.00 0.00 0.00 42 1010.6
20260503175002 16 226 3.2 11.3 0.00 0.00 0.00 44 1010.7
20260503174902 16 229 3.2 12.9 0.00 0.00 0.00 43 1010.7
20260503174802 16 226 3.2 12.9 0.00 0.00 0.00 40 1010.6
20260503174723 16 226 3.2 12.9 0.00 0.00 0.00 40 1010.6
20260503174602 16 227 3.2 12.9 0.00 0.00 0.00 42 1010.7
20260503174502 16 229 3.2 12.9 0.00 0.00 0.00 42 1010.6
20260503174402 16 228 3.2 12.9 0.00 0.00 0.00 41 1010.6
20260503174303 16 229 3.2 12.9 0.00 0.00 0.00 39 1010.8
20260503174202 16 230 3.2 12.9 0.00 0.00 0.00 42 1010.8
20260503174102 16 229 3.2 14.5 0.00 0.00 0.00 41 1010.7
20260503174002 16 228 3.2 14.5 0.00 0.00 0.00 40 1010.8
20260503173902 16 227 3.2 14.5 0.00 0.00 0.00 41 1010.8
20260503173802 16 227 3.2 14.5 0.00 0.00 0.00 42 1010.8
20260503173723 16 226 3.2 14.5 0.00 0.00 0.00 40 1010.8
20260503173602 16 227 3.2 14.5 0.00 0.00 0.00 40 1010.8
20260503173502 16 226 3.2 14.5 0.00 0.00 0.00 41 1010.8
20260503173402 16 228 3.2 14.5 0.00 0.00 0.00 42 1010.8
20260503173302 16 225 3.2 14.5 0.00 0.00 0.00 43 1010.8
20260503173202 16 226 4.8 14.5 0.00 0.00 0.00 44 1010.8
20260503173102 16 225 4.8 12.9 0.00 0.00 0.00 44 1010.8
20260503173002 16 227 4.8 12.9 0.00 0.00 0.00 41 1010.8
20260503172902 16 228 4.8 12.9 0.00 0.00 0.00 42 1010.8
20260503172823 16 228 4.8 12.9 0.00 0.00 0.00 43 1010.9
20260503172702 15 233 4.8 12.9 0.00 0.00 0.00 41 1010.9
20260503172602 15 231 4.8 12.9 0.00 0.00 0.00 44 1010.9
20260503172523 15 232 4.8 12.9 0.00 0.00 0.00 40 1011.0
20260503172402 16 232 4.8 12.9 0.00 0.00 0.00 41 1011.0
20260503172304 16 238 3.2 12.9 0.00 0.00 0.00 42 1011.0
20260503172202 16 237 3.2 11.3 0.00 0.00 0.00 44 1010.9
20260503172102 16 235 3.2 11.3 0.00 0.00 0.00 44 1010.9
20260503172002 15 235 3.2 11.3 0.00 0.00 0.00 42 1010.9
20260503171902 15 239 3.2 11.3 0.00 0.00 0.00 41 1011.0
20260503171802 15 239 3.2 9.7 0.00 0.00 0.00 42 1011.0
20260503171702 15 236 3.2 9.7 0.00 0.00 0.00 42 1011.1
20260503171623 15 237 3.2 9.7 0.00 0.00 0.00 41 1011.1
20260503171523 15 238 3.2 9.7 0.00 0.00 0.00 42 1011.0
20260503171402 15 244 3.2 9.7 0.00 0.00 0.00 40 1011.1
20260503171302 15 238 3.2 9.7 0.00 0.00 0.00 42 1011.1
20260503171202 15 244 3.2 9.7 0.00 0.00 0.00 43 1011.1
20260503171102 15 247 3.2 9.7 0.00 0.00 0.00 42 1011.1
20260503171023 15 246 3.2 9.7 0.00 0.00 0.00 40 1011.2
20260503170902 15 245 3.2 9.7 0.00 0.00 0.00 41 1011.1
20260503170802 15 243 3.2 9.7 0.00 0.00 0.00 41 1011.1
20260503170702 15 240 3.2 9.7 0.00 0.00 0.00 41 1011.2
20260503170602 15 240 3.2 9.7 0.00 0.00 0.00 40 1011.2
20260503170523 15 236 3.2 9.7 0.00 0.00 0.00 40 1011.3
20260503170402 15 228 3.2 9.7 0.00 0.00 0.00 40 1011.1
20260503170302 15 231 3.2 9.7 0.00 0.00 0.00 43 1011.1
20260503170202 15 231 3.2 9.7 0.00 0.00 0.00 42 1011.1
20260503151002 12 246 3.2 12.9 0.00 0.00 0.00 44 1012.5
20260503150923 12 246 3.2 12.9 0.00 0.00 0.00 44 1012.5
20260503150802 12 245 3.2 12.9 0.00 0.00 0.00 44 1012.5
20260503150702 12 249 3.2 12.9 0.00 0.00 0.00 43 1012.5
20260503150602 12 254 1.6 12.9 0.00 0.00 0.00 42 1012.5
20260503150502 12 247 1.6 12.9 0.00 0.00 0.00 42 1012.4
20260503150402 12 255 1.6 9.7 0.00 0.00 0.00 43 1012.4
20260503150302 12 254 1.6 9.7 0.00 0.00 0.00 42 1012.4
20260503150202 13 242 1.6 8.0 0.00 0.00 0.00 43 1012.4
20260503150123 13 245 1.6 8.0 0.00 0.00 0.00 44 1012.4
20260503140302 13 261 3.2 9.7 0.00 0.00 0.00 43 1012.5
20260503140202 13 255 3.2 11.3 0.00 0.00 0.00 42 1012.5
20260503131402 10 226 1.6 8.0 0.00 0.00 0.00 50 1012.7
20260503131302 10 226 1.6 8.0 0.00 0.00 0.00 50 1012.7
20260503131202 10 229 1.6 8.0 0.00 0.00 0.00 51 1012.7
20260503131123 10 231 1.6 8.0 0.00 0.00 0.00 51 1012.7
20260503131002 10 230 1.6 8.0 0.00 0.00 0.00 50 1012.7
20260503130902 10 227 1.6 8.0 0.00 0.00 0.00 50 1012.7
20260503130802 10 224 1.6 8.0 0.00 0.00 0.00 51 1012.7
20260503130702 10 224 1.6 8.0 0.00 0.00 0.00 51 1012.7
20260503130602 10 223 1.6 8.0 0.00 0.00 0.00 53 1012.7
20260503130502 10 229 1.6 6.4 0.00 0.00 0.00 52 1012.7
20260503130402 10 234 1.6 6.4 0.00 0.00 0.00 52 1012.7
20260503130302 10 232 1.6 6.4 0.00 0.00 0.00 51 1012.7
20260503130202 10 236 1.6 6.4 0.00 0.00 0.00 52 1012.7
20260503130123 10 236 1.6 6.4 0.00 0.00 0.00 52 1012.7
20260503120202 4 235 0.0 1.6 0.00 0.00 0.00 70 1013.0
20260503110802 0 75 0.0 1.6 0.00 0.00 0.00 90 1012.8
20260503110702 0 75 0.0 1.6 0.00 0.00 0.00 90 1012.8
20260503110602 0 75 0.0 1.6 0.00 0.00 0.00 90 1012.9
20260503110523 0 75 0.0 1.6 0.00 0.00 0.00 90 1012.9
20260503110402 0 0 0.0 0.0 0.00 0.00 0.00 90 1012.8
20260503110302 0 0 0.0 0.0 0.00 0.00 0.00 90 1012.9
20260503110202 0 0 0.0 0.0 0.00 0.00 0.00 90 1012.9
20260503100202 -1 0 0.0 0.0 0.00 0.00 0.00 91 1013.1
20260503090502 -1 0 0.0 0.0 0.00 0.00 0.00 90 1013.6
20260503090402 -1 0 0.0 0.0 0.00 0.00 0.00 90 1013.6
20260503090302 -1 0 0.0 0.0 0.00 0.00 0.00 90 1013.6
20260503090223 -1 0 0.0 0.0 0.00 0.00 0.00 90 1013.6
20260503081602 -1 0 0.0 0.0 0.00 0.00 0.00 90 1013.9
20260503081502 -1 0 0.0 0.0 0.00 0.00 0.00 90 1013.9
20260503081402 -1 0 0.0 0.0 0.00 0.00 0.00 90 1013.9
20260503081302 -1 0 0.0 0.0 0.00 0.00 0.00 90 1013.9
20260503081202 -1 0 0.0 0.0 0.00 0.00 0.00 90 1013.9
20260503081102 -1 0 0.0 0.0 0.00 0.00 0.00 90 1013.9
20260503081002 -1 0 0.0 0.0 0.00 0.00 0.00 90 1013.9
20260503080902 -1 0 0.0 0.0 0.00 0.00 0.00 90 1013.9
20260503080803 -1 0 0.0 0.0 0.00 0.00 0.00 90 1013.9
20260503080702 -1 0 0.0 0.0 0.00 0.00 0.00 90 1013.9
20260503080623 -1 0 0.0 0.0 0.00 0.00 0.00 90 1013.9
20260503080502 -1 0 0.0 0.0 0.00 0.00 0.00 90 1013.9
20260503080402 -1 0 0.0 0.0 0.00 0.00 0.00 89 1013.9
20260503080302 -1 0 0.0 0.0 0.00 0.00 0.00 90 1013.9
20260503080202 -1 0 0.0 0.0 0.00 0.00 0.00 89 1013.9
20260503072902 -1 0 0.0 0.0 0.00 0.00 0.00 89 1014.0
20260503072802 -1 0 0.0 0.0 0.00 0.00 0.00 89 1014.0
20260503072702 -1 0 0.0 0.0 0.00 0.00 0.00 89 1014.0
20260503072602 -1 0 0.0 0.0 0.00 0.00 0.00 89 1014.1
20260503072523 -1 0 0.0 0.0 0.00 0.00 0.00 89 1014.1
20260503072423 -1 0 0.0 0.0 0.00 0.00 0.00 89 1014.0
20260503072305 -1 0 0.0 0.0 0.00 0.00 0.00 89 1014.0
20260503072202 -1 0 0.0 0.0 0.00 0.00 0.00 89 1014.1
20260503072102 -1 0 0.0 0.0 0.00 0.00 0.00 89 1014.1
20260503072002 -1 0 0.0 0.0 0.00 0.00 0.00 89 1014.1
20260503071902 -1 0 0.0 0.0 0.00 0.00 0.00 89 1014.1
20260503071802 -1 0 0.0 0.0 0.00 0.00 0.00 89 1014.1
20260503071702 -1 0 0.0 0.0 0.00 0.00 0.00 89 1014.1
20260503071602 -1 0 0.0 0.0 0.00 0.00 0.00 89 1014.0
20260503071502 -1 0 0.0 0.0 0.00 0.00 0.00 89 1014.0
20260503071423 -1 0 0.0 0.0 0.00 0.00 0.00 89 1014.1
20260503071302 -1 0 0.0 0.0 0.00 0.00 0.00 89 1014.1
20260503071202 -1 0 0.0 0.0 0.00 0.00 0.00 89 1014.1
20260503071102 -1 0 0.0 0.0 0.00 0.00 0.00 89 1014.1
20260503071003 -1 0 0.0 0.0 0.00 0.00 0.00 89 1014.1
20260503070902 -1 0 0.0 0.0 0.00 0.00 0.00 89 1014.1
20260503070802 -1 0 0.0 0.0 0.00 0.00 0.00 89 1014.1
20260503070702 -1 0 0.0 0.0 0.00 0.00 0.00 89 1014.1
20260503070602 -1 0 0.0 0.0 0.00 0.00 0.00 89 1014.1
20260503070502 -1 0 0.0 0.0 0.00 0.00 0.00 89 1014.1
20260503070402 -1 0 0.0 0.0 0.00 0.00 0.00 89 1014.2
20260503070302 -1 0 0.0 0.0 0.00 0.00 0.00 89 1014.1
20260503070202 -1 0 0.0 0.0 0.00 0.00 0.00 89 1014.1
20260503060302 -1 0 0.0 0.0 0.00 0.00 0.00 89 1014.6
20260503060202 -1 0 0.0 0.0 0.00 0.00 0.00 89 1014.6
20260503055102 -1 0 0.0 0.0 0.00 0.00 0.00 89 1014.6
20260503055023 -1 0 0.0 0.0 0.00 0.00 0.00 89 1014.6
20260503054923 -1 0 0.0 0.0 0.00 0.00 0.00 89 1014.6
20260503054802 -1 0 0.0 0.0 0.00 0.00 0.00 89 1014.7
20260503054702 -1 0 0.0 0.0 0.00 0.00 0.00 89 1014.7
20260503054602 -1 0 0.0 0.0 0.00 0.00 0.00 89 1014.7
20260503054502 -1 0 0.0 0.0 0.00 0.00 0.00 89 1014.7
20260503054402 -1 0 0.0 0.0 0.00 0.00 0.00 89 1014.7
20260503054302 -1 0 0.0 0.0 0.00 0.00 0.00 89 1014.8
20260503054202 -1 0 0.0 0.0 0.00 0.00 0.00 89 1014.8
20260503054102 -1 0 0.0 0.0 0.00 0.00 0.00 88 1014.8
20260503054023 -1 0 0.0 0.0 0.00 0.00 0.00 88 1014.8
20260503053923 -1 0 0.0 0.0 0.00 0.00 0.00 88 1014.8
20260503053824 -1 0 0.0 0.0 0.00 0.00 0.00 88 1014.8
20260503053702 -1 0 0.0 0.0 0.00 0.00 0.00 88 1014.8
20260503053602 -1 0 0.0 0.0 0.00 0.00 0.00 88 1014.8
20260503053523 -1 0 0.0 0.0 0.00 0.00 0.00 88 1014.8
20260503053402 -1 0 0.0 0.0 0.00 0.00 0.00 88 1014.8
20260503053302 -1 0 0.0 0.0 0.00 0.00 0.00 88 1014.8
20260503053202 -1 0 0.0 0.0 0.00 0.00 0.00 88 1014.8
20260503053102 -1 0 0.0 0.0 0.00 0.00 0.00 88 1014.8
20260503053002 -1 0 0.0 0.0 0.00 0.00 0.00 88 1014.8
20260503052902 -1 0 0.0 0.0 0.00 0.00 0.00 88 1014.8
20260503052802 -1 0 0.0 0.0 0.00 0.00 0.00 88 1014.8
20260503052702 -1 0 0.0 0.0 0.00 0.00 0.00 88 1014.8
20260503052602 -1 0 0.0 0.0 0.00 0.00 0.00 88 1014.8
20260503052502 -1 0 0.0 0.0 0.00 0.00 0.00 88 1014.8
20260503052423 -1 0 0.0 0.0 0.00 0.00 0.00 88 1014.8
20260503052323 -1 0 0.0 0.0 0.00 0.00 0.00 88 1014.8
20260503052202 -1 0 0.0 0.0 0.00 0.00 0.00 88 1014.8
20260503052102 -1 0 0.0 0.0 0.00 0.00 0.00 88 1014.9
20260503052002 -1 0 0.0 0.0 0.00 0.00 0.00 88 1014.9
20260503051902 -1 0 0.0 0.0 0.00 0.00 0.00 88 1014.9
20260503051802 -1 0 0.0 0.0 0.00 0.00 0.00 88 1014.9
20260503051702 -1 0 0.0 0.0 0.00 0.00 0.00 88 1014.9
20260503051602 -1 0 0.0 0.0 0.00 0.00 0.00 88 1014.9
20260503051502 -1 0 0.0 0.0 0.00 0.00 0.00 87 1014.9
20260503051402 -1 0 0.0 0.0 0.00 0.00 0.00 87 1014.9
20260503051302 -1 0 0.0 0.0 0.00 0.00 0.00 87 1014.9
20260503051202 -1 0 0.0 0.0 0.00 0.00 0.00 87 1014.9
20260503051102 -1 0 0.0 0.0 0.00 0.00 0.00 87 1014.9
20260503051024 -1 0 0.0 0.0 0.00 0.00 0.00 87 1014.9
20260503050923 -1 0 0.0 0.0 0.00 0.00 0.00 87 1014.9
20260503050802 -1 0 0.0 0.0 0.00 0.00 0.00 87 1014.9
20260503050702 -1 0 0.0 0.0 0.00 0.00 0.00 87 1014.9
20260503050602 -1 0 0.0 0.0 0.00 0.00 0.00 87 1014.9
20260503050502 -1 0 0.0 0.0 0.00 0.00 0.00 87 1014.9
20260503050402 -1 0 0.0 0.0 0.00 0.00 0.00 87 1014.9
20260503050302 -1 0 0.0 0.0 0.00 0.00 0.00 87 1014.9
20260503050202 -1 0 0.0 0.0 0.00 0.00 0.00 87 1015.0
20260503050002 -1 0 0.0 0.0 0.00 0.00 0.00 87 1014.9
20260503045923 -1 0 0.0 0.0 0.00 0.00 0.00 87 1014.9
20260503045802 -1 0 0.0 0.0 0.00 0.00 0.00 87 1014.9
20260503045703 -1 0 0.0 0.0 0.00 0.00 0.00 87 1014.9
20260503045602 -1 0 0.0 0.0 0.00 0.00 0.00 87 1014.9
20260503045502 0 0 0.0 0.0 0.00 0.00 0.00 87 1014.9
20260503045423 -1 0 0.0 0.0 0.00 0.00 0.00 87 1014.9
20260503045304 0 0 0.0 0.0 0.00 0.00 0.00 87 1014.9
20260503045202 0 0 0.0 0.0 0.00 0.00 0.00 87 1014.9
20260503045102 0 0 0.0 0.0 0.00 0.00 0.00 87 1014.9
20260503045002 0 0 0.0 0.0 0.00 0.00 0.00 87 1014.9
20260503044902 0 0 0.0 0.0 0.00 0.00 0.00 87 1014.9
20260503044802 0 0 0.0 0.0 0.00 0.00 0.00 87 1014.9
20260503044702 0 0 0.0 0.0 0.00 0.00 0.00 87 1014.9
20260503044602 0 0 0.0 0.0 0.00 0.00 0.00 87 1014.9
20260503044502 0 0 0.0 0.0 0.00 0.00 0.00 87 1014.9
20260503044423 0 0 0.0 0.0 0.00 0.00 0.00 87 1014.9
20260503044302 0 0 0.0 0.0 0.00 0.00 0.00 87 1014.9
20260503044202 0 0 0.0 0.0 0.00 0.00 0.00 87 1014.9
20260503044102 0 0 0.0 0.0 0.00 0.00 0.00 87 1015.0
20260503044002 0 0 0.0 0.0 0.00 0.00 0.00 87 1015.0
20260503043923 0 0 0.0 0.0 0.00 0.00 0.00 87 1014.9
20260503043802 0 0 0.0 0.0 0.00 0.00 0.00 87 1014.9
20260503043702 0 0 0.0 0.0 0.00 0.00 0.00 87 1014.9
20260503043602 0 0 0.0 0.0 0.00 0.00 0.00 87 1014.9
20260503043502 0 0 0.0 0.0 0.00 0.00 0.00 87 1014.9
20260503043402 0 0 0.0 0.0 0.00 0.00 0.00 87 1014.9
20260503043323 0 0 0.0 0.0 0.00 0.00 0.00 87 1014.9
20260503043202 0 0 0.0 0.0 0.00 0.00 0.00 87 1014.9
20260503043102 0 0 0.0 0.0 0.00 0.00 0.00 87 1014.9
20260503043002 0 0 0.0 0.0 0.00 0.00 0.00 86 1014.9
20260503042902 0 0 0.0 0.0 0.00 0.00 0.00 86 1014.9
20260503042802 0 0 0.0 0.0 0.00 0.00 0.00 86 1014.9
20260503042702 0 0 0.0 0.0 0.00 0.00 0.00 86 1014.9
20260503042602 0 0 0.0 0.0 0.00 0.00 0.00 86 1014.9
20260503042502 0 0 0.0 0.0 0.00 0.00 0.00 86 1014.9
20260503042402 0 0 0.0 0.0 0.00 0.00 0.00 86 1014.9
20260503042304 0 0 0.0 0.0 0.00 0.00 0.00 86 1014.9
20260503042202 0 0 0.0 0.0 0.00 0.00 0.00 86 1014.9
20260503042102 0 0 0.0 0.0 0.00 0.00 0.00 86 1014.9
20260503042002 0 0 0.0 0.0 0.00 0.00 0.00 86 1014.9
20260503041902 0 0 0.0 0.0 0.00 0.00 0.00 86 1015.0
20260503041802 0 0 0.0 0.0 0.00 0.00 0.00 86 1015.0
20260503041723 0 0 0.0 0.0 0.00 0.00 0.00 86 1015.0
20260503041623 0 0 0.0 0.0 0.00 0.00 0.00 86 1015.0
20260503041502 0 0 0.0 0.0 0.00 0.00 0.00 86 1015.0
20260503041402 0 0 0.0 0.0 0.00 0.00 0.00 86 1015.0
20260503041302 0 0 0.0 0.0 0.00 0.00 0.00 86 1015.0
20260503041202 0 0 0.0 0.0 0.00 0.00 0.00 86 1015.0
20260503041102 0 0 0.0 0.0 0.00 0.00 0.00 86 1015.0
20260503041002 0 0 0.0 0.0 0.00 0.00 0.00 86 1015.0
20260503040902 0 0 0.0 0.0 0.00 0.00 0.00 86 1015.0
20260503040802 0 0 0.0 0.0 0.00 0.00 0.00 86 1015.0
20260503040702 0 0 0.0 0.0 0.00 0.00 0.00 86 1015.0
20260503040602 0 0 0.0 0.0 0.00 0.00 0.00 86 1015.1
20260503040502 0 0 0.0 0.0 0.00 0.00 0.00 86 1015.1
20260503040402 0 0 0.0 0.0 0.00 0.00 0.00 86 1015.1
20260503040302 0 0 0.0 0.0 0.00 0.00 0.00 86 1015.1
20260503040202 0 0 0.0 0.0 0.00 0.00 0.00 86 1015.1
20260503040002 0 0 0.0 0.0 0.00 0.00 0.00 86 1015.1
20260503035902 0 0 0.0 0.0 0.00 0.00 0.00 86 1015.1
20260503035802 0 0 0.0 0.0 0.00 0.00 0.00 86 1015.1
20260503035702 0 0 0.0 0.0 0.00 0.00 0.00 86 1015.1
20260503035602 0 0 0.0 0.0 0.00 0.00 0.00 85 1015.1
20260503035502 0 0 0.0 0.0 0.00 0.00 0.00 85 1015.1
20260503035402 0 0 0.0 0.0 0.00 0.00 0.00 85 1015.1
20260503035304 0 0 0.0 0.0 0.00 0.00 0.00 85 1015.2
20260503035202 0 0 0.0 0.0 0.00 0.00 0.00 85 1015.2
20260503035102 0 0 0.0 0.0 0.00 0.00 0.00 85 1015.1
20260503035002 0 0 0.0 0.0 0.00 0.00 0.00 85 1015.1
20260503034902 0 0 0.0 0.0 0.00 0.00 0.00 85 1015.1
20260503034823 0 0 0.0 0.0 0.00 0.00 0.00 85 1015.1
20260503034702 0 0 0.0 0.0 0.00 0.00 0.00 84 1015.1
20260503034602 0 0 0.0 0.0 0.00 0.00 0.00 84 1015.2
20260503034502 0 0 0.0 0.0 0.00 0.00 0.00 84 1015.2
20260503034423 0 0 0.0 0.0 0.00 0.00 0.00 84 1015.1
20260503034323 0 0 0.0 0.0 0.00 0.00 0.00 84 1015.1
20260503034202 0 0 0.0 0.0 0.00 0.00 0.00 84 1015.1
20260503034102 0 0 0.0 0.0 0.00 0.00 0.00 84 1015.2
20260503034002 0 0 0.0 0.0 0.00 0.00 0.00 84 1015.2
20260503033923 0 0 0.0 0.0 0.00 0.00 0.00 84 1015.2
20260503033823 0 0 0.0 0.0 0.00 0.00 0.00 84 1015.2
20260503033702 0 0 0.0 0.0 0.00 0.00 0.00 84 1015.2
20260503033623 0 0 0.0 0.0 0.00 0.00 0.00 84 1015.2
20260503033502 0 0 0.0 0.0 0.00 0.00 0.00 84 1015.1
20260503033402 0 0 0.0 0.0 0.00 0.00 0.00 83 1015.1
20260503033302 0 0 0.0 0.0 0.00 0.00 0.00 83 1015.2
20260503033202 0 0 0.0 0.0 0.00 0.00 0.00 83 1015.2
20260503033102 0 0 0.0 0.0 0.00 0.00 0.00 84 1015.2
20260503033002 0 0 0.0 0.0 0.00 0.00 0.00 84 1015.2
20260503032902 0 0 0.0 0.0 0.00 0.00 0.00 84 1015.2
20260503032802 0 0 0.0 0.0 0.00 0.00 0.00 84 1015.2
20260503032703 0 0 0.0 0.0 0.00 0.00 0.00 83 1015.2
20260503032602 0 0 0.0 0.0 0.00 0.00 0.00 83 1015.2
20260503032502 0 0 0.0 0.0 0.00 0.00 0.00 83 1015.2
20260503032402 0 0 0.0 0.0 0.00 0.00 0.00 83 1015.2
20260503032304 0 0 0.0 0.0 0.00 0.00 0.00 83 1015.2
20260503032202 0 0 0.0 0.0 0.00 0.00 0.00 83 1015.2
20260503032102 0 0 0.0 0.0 0.00 0.00 0.00 83 1015.2
20260503032002 0 0 0.0 0.0 0.00 0.00 0.00 83 1015.2
20260503031902 0 0 0.0 0.0 0.00 0.00 0.00 83 1015.2
20260503031802 0 0 0.0 0.0 0.00 0.00 0.00 83 1015.2
20260503031702 0 0 0.0 0.0 0.00 0.00 0.00 83 1015.2
20260503031602 0 0 0.0 0.0 0.00 0.00 0.00 83 1015.2
20260503031502 0 0 0.0 0.0 0.00 0.00 0.00 83 1015.2
20260503031402 0 0 0.0 0.0 0.00 0.00 0.00 83 1015.2
20260503031302 0 0 0.0 0.0 0.00 0.00 0.00 83 1015.2
20260503031202 0 0 0.0 0.0 0.00 0.00 0.00 83 1015.2
20260503031102 0 0 0.0 0.0 0.00 0.00 0.00 83 1015.2
20260503031002 0 0 0.0 0.0 0.00 0.00 0.00 82 1015.2
20260503030902 0 0 0.0 0.0 0.00 0.00 0.00 83 1015.2
20260503030803 0 0 0.0 0.0 0.00 0.00 0.00 83 1015.2
20260503030723 0 0 0.0 0.0 0.00 0.00 0.00 83 1015.2
20260503030602 0 0 0.0 0.0 0.00 0.00 0.00 83 1015.3
20260503030502 0 0 0.0 0.0 0.00 0.00 0.00 82 1015.2
20260503030402 0 0 0.0 0.0 0.00 0.00 0.00 82 1015.2
20260503030303 0 0 0.0 0.0 0.00 0.00 0.00 82 1015.2
20260503030202 0 0 0.0 0.0 0.00 0.00 0.00 82 1015.3
20260503030003 1 0 0.0 0.0 0.00 0.00 0.00 82 1015.3
20260503025902 1 0 0.0 0.0 0.00 0.00 0.00 81 1015.3
20260503025802 1 0 0.0 0.0 0.00 0.00 0.00 81 1015.3
20260503025702 1 0 0.0 0.0 0.00 0.00 0.00 81 1015.3
20260503025602 1 0 0.0 0.0 0.00 0.00 0.00 81 1015.3
20260503025523 1 0 0.0 0.0 0.00 0.00 0.00 81 1015.3
20260503025402 1 0 0.0 0.0 0.00 0.00 0.00 81 1015.3
20260503025305 1 0 0.0 0.0 0.00 0.00 0.00 81 1015.3
20260503025202 1 0 0.0 0.0 0.00 0.00 0.00 81 1015.3
20260503025102 1 0 0.0 0.0 0.00 0.00 0.00 81 1015.3
20260503025002 1 0 0.0 0.0 0.00 0.00 0.00 81 1015.4
20260503024902 1 0 0.0 0.0 0.00 0.00 0.00 81 1015.3
20260503024802 1 0 0.0 0.0 0.00 0.00 0.00 81 1015.3
20260503024702 1 0 0.0 0.0 0.00 0.00 0.00 81 1015.4
20260503024602 1 0 0.0 0.0 0.00 0.00 0.00 81 1015.4
20260503024502 1 0 0.0 0.0 0.00 0.00 0.00 81 1015.4
20260503024402 1 0 0.0 0.0 0.00 0.00 0.00 81 1015.4
20260503024302 1 0 0.0 0.0 0.00 0.00 0.00 80 1015.4
20260503024223 1 0 0.0 0.0 0.00 0.00 0.00 80 1015.4
20260503024102 1 0 0.0 0.0 0.00 0.00 0.00 80 1015.4
20260503024002 1 0 0.0 0.0 0.00 0.00 0.00 80 1015.4
20260503023902 1 0 0.0 0.0 0.00 0.00 0.00 79 1015.4
20260503023802 1 0 0.0 0.0 0.00 0.00 0.00 79 1015.4
20260503023702 1 0 0.0 0.0 0.00 0.00 0.00 79 1015.4
20260503023623 1 0 0.0 0.0 0.00 0.00 0.00 79 1015.4
20260503023523 1 0 0.0 0.0 0.00 0.00 0.00 78 1015.4
20260503023402 1 0 0.0 0.0 0.00 0.00 0.00 77 1015.4
20260503023302 1 0 0.0 0.0 0.00 0.00 0.00 77 1015.4
20260503023202 1 0 0.0 0.0 0.00 0.00 0.00 77 1015.4
20260503023123 1 0 0.0 0.0 0.00 0.00 0.00 76 1015.4
20260503023002 1 0 0.0 0.0 0.00 0.00 0.00 76 1015.4
20260503022902 1 0 0.0 0.0 0.00 0.00 0.00 76 1015.4
20260503022802 1 0 0.0 0.0 0.00 0.00 0.00 76 1015.4
20260503022702 1 0 0.0 0.0 0.00 0.00 0.00 76 1015.4
20260503022602 1 0 0.0 0.0 0.00 0.00 0.00 76 1015.4
20260503022502 1 0 0.0 0.0 0.00 0.00 0.00 76 1015.4
20260503022402 1 0 0.0 0.0 0.00 0.00 0.00 76 1015.5
20260503022304 1 0 0.0 0.0 0.00 0.00 0.00 76 1015.4
20260503022202 1 0 0.0 0.0 0.00 0.00 0.00 75 1015.4
20260503022102 1 0 0.0 0.0 0.00 0.00 0.00 75 1015.4
20260503022023 1 0 0.0 0.0 0.00 0.00 0.00 75 1015.4
20260503021902 1 0 0.0 0.0 0.00 0.00 0.00 76 1015.4
20260503021802 1 0 0.0 0.0 0.00 0.00 0.00 76 1015.5
20260503021702 1 0 0.0 0.0 0.00 0.00 0.00 76 1015.5
20260503021602 1 0 0.0 0.0 0.00 0.00 0.00 76 1015.4
20260503021502 1 0 0.0 0.0 0.00 0.00 0.00 75 1015.4
20260503021402 1 0 0.0 0.0 0.00 0.00 0.00 76 1015.4
20260503021302 1 0 0.0 0.0 0.00 0.00 0.00 76 1015.4
20260503021202 1 0 0.0 0.0 0.00 0.00 0.00 76 1015.4
20260503021102 2 0 0.0 0.0 0.00 0.00 0.00 75 1015.4
20260503021002 2 0 0.0 0.0 0.00 0.00 0.00 74 1015.4
20260503020902 2 0 0.0 0.0 0.00 0.00 0.00 75 1015.4
20260503020802 2 0 0.0 0.0 0.00 0.00 0.00 75 1015.4
20260503020723 2 0 0.0 0.0 0.00 0.00 0.00 75 1015.4
20260503020603 2 0 0.0 0.0 0.00 0.00 0.00 74 1015.4
20260503020502 2 0 0.0 0.0 0.00 0.00 0.00 74 1015.3
20260503020402 2 0 0.0 0.0 0.00 0.00 0.00 73 1015.3
20260503020323 2 0 0.0 0.0 0.00 0.00 0.00 73 1015.4
20260503020202 2 0 0.0 0.0 0.00 0.00 0.00 75 1015.4
20260503020002 2 0 0.0 0.0 0.00 0.00 0.00 75 1015.3
20260503015902 2 0 0.0 0.0 0.00 0.00 0.00 74 1015.3
20260503015802 2 0 0.0 0.0 0.00 0.00 0.00 75 1015.4
20260503015702 2 0 0.0 0.0 0.00 0.00 0.00 76 1015.4
20260503015623 2 0 0.0 0.0 0.00 0.00 0.00 76 1015.4
20260503015502 2 0 0.0 0.0 0.00 0.00 0.00 76 1015.4
20260503015402 2 0 0.0 0.0 0.00 0.00 0.00 75 1015.4
20260503015305 2 0 0.0 0.0 0.00 0.00 0.00 74 1015.4
20260503015202 2 0 0.0 0.0 0.00 0.00 0.00 73 1015.3
20260503015102 2 0 0.0 0.0 0.00 0.00 0.00 72 1015.3
20260503015002 2 0 0.0 0.0 0.00 0.00 0.00 73 1015.3
20260503014902 2 0 0.0 0.0 0.00 0.00 0.00 73 1015.3
20260503014802 2 0 0.0 0.0 0.00 0.00 0.00 73 1015.3
20260503014702 2 0 0.0 0.0 0.00 0.00 0.00 73 1015.3
20260503014602 2 0 0.0 0.0 0.00 0.00 0.00 72 1015.3
20260503014502 2 0 0.0 0.0 0.00 0.00 0.00 72 1015.2
20260503014402 3 0 0.0 0.0 0.00 0.00 0.00 71 1015.2
20260503014302 3 0 0.0 0.0 0.00 0.00 0.00 70 1015.2
20260503014202 3 0 0.0 0.0 0.00 0.00 0.00 72 1015.2
20260503014102 3 0 0.0 0.0 0.00 0.00 0.00 71 1015.2
20260503014002 3 0 0.0 0.0 0.00 0.00 0.00 72 1015.2
20260503013902 3 0 0.0 0.0 0.00 0.00 0.00 72 1015.2
20260503013802 3 0 0.0 0.0 0.00 0.00 0.00 72 1015.2
20260503013723 3 0 0.0 0.0 0.00 0.00 0.00 72 1015.1
20260503013602 3 0 0.0 0.0 0.00 0.00 0.00 73 1015.1
20260503013523 3 0 0.0 0.0 0.00 0.00 0.00 73 1015.2
20260503013402 3 0 0.0 0.0 0.00 0.00 0.00 73 1015.2
20260503013302 3 0 0.0 0.0 0.00 0.00 0.00 72 1015.2
20260503013223 3 0 0.0 0.0 0.00 0.00 0.00 71 1015.1
20260503013102 3 0 0.0 0.0 0.00 0.00 0.00 70 1015.1
20260503013002 3 0 0.0 0.0 0.00 0.00 0.00 69 1015.1
20260503012902 3 0 0.0 0.0 0.00 0.00 0.00 71 1015.2
20260503012823 3 0 0.0 0.0 0.00 0.00 0.00 71 1015.2
20260503012702 3 0 0.0 0.0 0.00 0.00 0.00 71 1015.2
20260503012602 3 0 0.0 0.0 0.00 0.00 0.00 71 1015.1
20260503012502 4 0 0.0 0.0 0.00 0.00 0.00 72 1015.1
20260503012402 4 0 0.0 0.0 0.00 0.00 0.00 72 1015.1
20260503012305 4 0 0.0 0.0 0.00 0.00 0.00 72 1015.1
20260503012202 4 0 0.0 0.0 0.00 0.00 0.00 72 1015.1
20260503012102 4 0 0.0 0.0 0.00 0.00 0.00 71 1015.1
20260503012002 4 0 0.0 0.0 0.00 0.00 0.00 71 1015.1
20260503011902 4 0 0.0 0.0 0.00 0.00 0.00 70 1015.1
20260503011802 4 0 0.0 0.0 0.00 0.00 0.00 70 1015.1
20260503011723 4 0 0.0 0.0 0.00 0.00 0.00 70 1015.1
20260503011602 4 0 0.0 0.0 0.00 0.00 0.00 69 1015.1
20260503011523 4 0 0.0 0.0 0.00 0.00 0.00 69 1015.1
20260503011402 4 0 0.0 0.0 0.00 0.00 0.00 68 1015.1
20260503011302 4 0 0.0 0.0 0.00 0.00 0.00 67 1015.1
20260503011202 4 0 0.0 0.0 0.00 0.00 0.00 67 1015.1
20260503011102 4 0 0.0 0.0 0.00 0.00 0.00 67 1015.1
20260503011023 4 0 0.0 0.0 0.00 0.00 0.00 67 1015.1
20260503010902 5 0 0.0 0.0 0.00 0.00 0.00 66 1015.1
20260503010802 5 0 0.0 0.0 0.00 0.00 0.00 67 1015.1
20260503010702 5 0 0.0 0.0 0.00 0.00 0.00 67 1015.1
20260503010602 5 0 0.0 0.0 0.00 0.00 0.00 69 1015.0
20260503010523 5 0 0.0 0.0 0.00 0.00 0.00 69 1015.0
20260503010402 5 0 0.0 0.0 0.00 0.00 0.00 68 1015.0
20260503010302 5 0 0.0 0.0 0.00 0.00 0.00 65 1015.0
20260503010202 5 0 0.0 0.0 0.00 0.00 0.00 66 1015.0
20260503010123 5 0 0.0 0.0 0.00 0.00 0.00 65 1015.0
20260503010002 5 0 0.0 0.0 0.00 0.00 0.00 66 1015.0
20260503005902 5 0 0.0 0.0 0.00 0.00 0.00 66 1015.0
20260503005802 5 0 0.0 0.0 0.00 0.00 0.00 66 1015.0
20260503005723 5 0 0.0 0.0 0.00 0.00 0.00 67 1015.0
20260503005602 5 0 0.0 0.0 0.00 0.00 0.00 66 1015.0
20260503005502 5 0 0.0 0.0 0.00 0.00 0.00 66 1015.0
20260503005402 5 0 0.0 0.0 0.00 0.00 0.00 66 1015.0
20260503005304 5 0 0.0 0.0 0.00 0.00 0.00 66 1015.0
20260503005202 5 0 0.0 0.0 0.00 0.00 0.00 65 1015.0
20260503005102 5 0 0.0 0.0 0.00 0.00 0.00 64 1015.0
20260503005002 5 0 0.0 0.0 0.00 0.00 0.00 63 1014.9
20260503004902 6 0 0.0 0.0 0.00 0.00 0.00 65 1014.9
20260503004823 6 0 0.0 0.0 0.00 0.00 0.00 65 1015.0
20260503004702 6 0 0.0 0.0 0.00 0.00 0.00 63 1015.0
20260503004602 6 0 0.0 0.0 0.00 0.00 0.00 62 1014.9
20260503004502 6 0 0.0 0.0 0.00 0.00 0.00 62 1014.9
20260503004402 6 0 0.0 0.0 0.00 0.00 0.00 64 1014.9
20260503004302 6 0 0.0 0.0 0.00 0.00 0.00 60 1014.9
20260503004202 6 0 0.0 0.0 0.00 0.00 0.00 60 1014.9
20260503004102 6 0 0.0 0.0 0.00 0.00 0.00 60 1014.9
20260503004002 6 0 0.0 0.0 0.00 0.00 0.00 60 1014.9
20260503003902 6 0 0.0 0.0 0.00 0.00 0.00 63 1014.9
20260503003802 6 0 0.0 0.0 0.00 0.00 0.00 63 1014.9
20260503003723 6 0 0.0 0.0 0.00 0.00 0.00 59 1014.9
20260503003602 6 0 0.0 0.0 0.00 0.00 0.00 59 1014.9
20260503003502 6 0 0.0 0.0 0.00 0.00 0.00 61 1014.9
20260503003402 7 0 0.0 0.0 0.00 0.00 0.00 59 1014.9
20260503003323 7 0 0.0 0.0 0.00 0.00 0.00 58 1014.9
20260503003223 7 0 0.0 0.0 0.00 0.00 0.00 58 1014.9
20260503003102 7 0 0.0 0.0 0.00 0.00 0.00 58 1014.8
20260503003002 7 0 0.0 0.0 0.00 0.00 0.00 59 1014.8
20260503002902 7 0 0.0 0.0 0.00 0.00 0.00 62 1014.8
20260503002802 7 0 0.0 0.0 0.00 0.00 0.00 59 1014.9
20260503002702 7 0 0.0 0.0 0.00 0.00 0.00 59 1014.8
20260503002602 7 0 0.0 0.0 0.00 0.00 0.00 60 1014.8
20260503002502 7 0 0.0 0.0 0.00 0.00 0.00 58 1014.8
20260503002402 7 0 0.0 0.0 0.00 0.00 0.00 59 1014.8
20260503002304 7 0 0.0 0.0 0.00 0.00 0.00 56 1014.8
20260503002202 7 0 0.0 0.0 0.00 0.00 0.00 53 1014.8
20260503002102 7 0 0.0 0.0 0.00 0.00 0.00 54 1014.8
20260503002002 7 0 0.0 0.0 0.00 0.00 0.00 54 1014.8
20260503001902 7 0 0.0 0.0 0.00 0.00 0.00 52 1014.8
20260503001802 7 0 0.0 0.0 0.00 0.00 0.00 53 1014.8
20260503001702 7 0 0.0 0.0 0.00 0.00 0.00 53 1014.8
20260503001602 7 0 0.0 0.0 0.00 0.00 0.00 54 1014.8
20260503001523 7 0 0.0 0.0 0.00 0.00 0.00 54 1014.8
20260503001402 7 0 0.0 0.0 0.00 0.00 0.00 55 1014.8
20260503001302 7 217 0.0 3.2 0.00 0.00 0.00 54 1014.8
20260503001202 7 219 0.0 3.2 0.00 0.00 0.00 53 1014.8
20260503001123 7 219 0.0 3.2 0.00 0.00 0.00 50 1014.8
20260503001023 7 219 0.0 3.2 0.00 0.00 0.00 51 1014.9
20260503000902 7 219 0.0 3.2 0.00 0.00 0.00 52 1014.9
20260503000802 7 219 0.0 3.2 0.00 0.00 0.00 53 1014.9
20260503000723 7 219 0.0 3.2 0.00 0.00 0.00 51 1014.9
20260503000602 7 219 0.0 3.2 0.00 0.00 0.00 48 1014.9
20260503000523 7 219 0.0 3.2 0.00 0.00 0.00 49 1014.9
20260503000402 7 219 0.0 3.2 0.00 0.00 0.00 46 1014.9
20260503000325 7 219 0.0 3.2 0.00 0.00 0.00 47 1014.9
20260503000203 8 213 0.0 1.6 0.00 0.00 0.00 49 1014.9
20260503000002 8 213 0.0 1.6 0.00 0.00 0.00 47 1014.9
20260502235923 8 213 0.0 1.6 0.00 0.00 0.00 46 1014.9
20260502235802 8 213 0.0 1.6 0.00 0.00 0.00 45 1014.9
20260502235702 8 213 0.0 1.6 0.00 0.00 0.00 46 1014.9
20260502235602 8 213 0.0 1.6 0.00 0.00 0.00 47 1014.9
20260502235502 8 222 0.0 6.4 0.00 0.00 0.00 46 1014.9
20260502235402 8 225 0.0 8.0 0.00 0.00 0.00 47 1014.9
20260502235304 8 227 0.0 8.0 0.00 0.00 0.00 46 1014.9
20260502235202 8 227 0.0 8.0 0.00 0.00 0.00 47 1014.9
20260502235102 8 227 0.0 8.0 0.00 0.00 0.00 47 1014.9
20260502235003 8 227 0.0 8.0 0.00 0.00 0.00 47 1014.9
20260502234902 8 227 1.6 8.0 0.00 0.00 0.00 49 1014.9
20260502234802 8 226 1.6 8.0 0.00 0.00 0.00 49 1014.9
20260502234702 8 237 1.6 8.0 0.00 0.00 0.00 48 1014.9
20260502234602 8 247 1.6 8.0 0.00 0.00 0.00 46 1014.9
20260502234502 8 251 1.6 8.0 0.00 0.00 0.00 45 1014.9
20260502234402 8 261 1.6 6.4 0.00 0.00 0.00 49 1014.9
20260502234302 8 267 1.6 6.4 0.00 0.00 0.00 49 1014.9
20260502234223 8 267 1.6 6.4 0.00 0.00 0.00 49 1014.9
20260502234102 8 266 1.6 6.4 0.00 0.00 0.00 46 1014.9
20260502234023 8 266 1.6 6.4 0.00 0.00 0.00 45 1014.9
20260502233902 8 278 1.6 6.4 0.00 0.00 0.00 45 1015.0
20260502233802 8 296 1.6 6.4 0.00 0.00 0.00 45 1014.9
20260502233702 8 264 0.0 4.8 0.00 0.00 0.00 47 1014.9
20260502233602 8 225 0.0 3.2 0.00 0.00 0.00 45 1014.9
20260502233502 8 220 0.0 1.6 0.00 0.00 0.00 46 1014.9
20260502233402 8 218 0.0 1.6 0.00 0.00 0.00 49 1014.9
20260502233302 8 217 0.0 1.6 0.00 0.00 0.00 49 1014.9
20260502233202 8 224 0.0 1.6 0.00 0.00 0.00 47 1014.9
20260502233102 8 244 0.0 1.6 0.00 0.00 0.00 47 1014.9
20260502233023 8 244 0.0 1.6 0.00 0.00 0.00 49 1014.9
20260502232902 8 249 0.0 1.6 0.00 0.00 0.00 49 1015.0
20260502232802 8 249 0.0 1.6 0.00 0.00 0.00 47 1015.0
20260502232702 8 249 0.0 1.6 0.00 0.00 0.00 48 1015.0
20260502232602 8 250 0.0 1.6 0.00 0.00 0.00 46 1015.0
20260502232502 8 264 0.0 1.6 0.00 0.00 0.00 47 1015.0
20260502232423 8 271 0.0 1.6 0.00 0.00 0.00 46 1015.0
20260502232304 8 281 0.0 1.6 0.00 0.00 0.00 50 1015.0
20260502232202 8 298 0.0 1.6 0.00 0.00 0.00 50 1015.0
20260502232102 8 267 0.0 1.6 0.00 0.00 0.00 48 1015.0
20260502232002 8 272 0.0 1.6 0.00 0.00 0.00 48 1015.0
20260502231923 8 272 0.0 1.6 0.00 0.00 0.00 48 1015.0
20260502231803 8 272 0.0 1.6 0.00 0.00 0.00 49 1015.0
20260502231723 8 272 0.0 1.6 0.00 0.00 0.00 47 1015.0
20260502231602 8 266 0.0 1.6 0.00 0.00 0.00 48 1015.0
20260502231502 8 256 0.0 1.6 0.00 0.00 0.00 47 1015.0
20260502231402 8 241 0.0 3.2 0.00 0.00 0.00 46 1015.0
20260502231302 8 239 0.0 3.2 0.00 0.00 0.00 47 1015.0
20260502231224 8 231 0.0 3.2 0.00 0.00 0.00 45 1015.0
20260502231102 8 225 0.0 3.2 0.00 0.00 0.00 45 1015.0
20260502231002 8 222 0.0 3.2 0.00 0.00 0.00 46 1015.1
20260502230902 8 225 0.0 3.2 0.00 0.00 0.00 46 1015.1
20260502230802 8 224 1.6 4.8 0.00 0.00 0.00 45 1015.0
20260502230702 8 224 1.6 4.8 0.00 0.00 0.00 45 1015.1
20260502230602 8 226 1.6 4.8 0.00 0.00 0.00 45 1015.1
20260502230502 8 226 1.6 4.8 0.00 0.00 0.00 48 1015.1
20260502230402 8 226 0.0 4.8 0.00 0.00 0.00 47 1015.1
20260502230302 8 246 1.6 4.8 0.00 0.00 0.00 47 1015.1
20260502230202 8 278 1.6 4.8 0.00 0.00 0.00 46 1015.1
20260502230023 8 303 1.6 4.8 0.00 0.00 0.00 44 1015.1
20260502225903 8 309 1.6 4.8 0.00 0.00 0.00 45 1015.1
20260502225823 8 332 1.6 4.8 0.00 0.00 0.00 46 1015.1
20260502225702 8 339 1.6 4.8 0.00 0.00 0.00 44 1015.1
20260502225602 8 340 1.6 4.8 0.00 0.00 0.00 45 1015.1
20260502225502 8 340 1.6 4.8 0.00 0.00 0.00 45 1015.1
20260502225402 8 340 1.6 4.8 0.00 0.00 0.00 44 1015.1
20260502225323 8 336 1.6 3.2 0.00 0.00 0.00 44 1015.1
20260502225223 8 331 0.0 3.2 0.00 0.00 0.00 43 1015.1
20260502225102 8 329 0.0 1.6 0.00 0.00 0.00 44 1015.1
20260502225024 8 349 0.0 1.6 0.00 0.00 0.00 44 1015.1
20260502224902 8 4 0.0 1.6 0.00 0.00 0.00 45 1015.1
20260502224802 8 5 0.0 1.6 0.00 0.00 0.00 45 1015.1
20260502224702 8 14 0.0 1.6 0.00 0.00 0.00 46 1015.2
20260502224602 8 0 0.0 0.0 0.00 0.00 0.00 46 1015.2
20260502224502 8 0 0.0 0.0 0.00 0.00 0.00 45 1015.1
20260502224423 8 14 0.0 1.6 0.00 0.00 0.00 45 1015.1
20260502224302 8 11 0.0 6.4 0.00 0.00 0.00 44 1015.2
20260502224202 8 11 0.0 6.4 0.00 0.00 0.00 44 1015.2
20260502224102 8 13 0.0 6.4 0.00 0.00 0.00 45 1015.2
20260502224002 8 10 1.6 6.4 0.00 0.00 0.00 45 1015.2
20260502223923 8 8 1.6 6.4 0.00 0.00 0.00 45 1015.2
20260502223802 8 7 1.6 6.4 0.00 0.00 0.00 45 1015.2
20260502223723 8 6 1.6 6.4 0.00 0.00 0.00 44 1015.1
20260502223602 8 1 1.6 6.4 0.00 0.00 0.00 45 1015.2
20260502223502 8 359 1.6 6.4 0.00 0.00 0.00 45 1015.2
20260502223423 8 358 1.6 6.4 0.00 0.00 0.00 43 1015.2
20260502223323 8 352 1.6 6.4 0.00 0.00 0.00 45 1015.2
20260502223202 8 335 1.6 6.4 0.00 0.00 0.00 44 1015.2
20260502223123 8 319 1.6 6.4 0.00 0.00 0.00 43 1015.2
20260502223002 8 237 1.6 4.8 0.00 0.00 0.00 44 1015.2
20260502222902 8 215 0.0 4.8 0.00 0.00 0.00 43 1015.2
20260502222802 8 217 0.0 4.8 0.00 0.00 0.00 43 1015.2
20260502222703 8 237 0.0 4.8 0.00 0.00 0.00 43 1015.1
20260502222602 8 255 0.0 4.8 0.00 0.00 0.00 45 1015.2
20260502222523 8 260 1.6 4.8 0.00 0.00 0.00 44 1015.2
20260502222402 8 294 1.6 4.8 0.00 0.00 0.00 44 1015.2
20260502222305 8 318 1.6 4.8 0.00 0.00 0.00 44 1015.2
20260502222202 8 342 1.6 4.8 0.00 0.00 0.00 44 1015.2
20260502222123 8 342 1.6 4.8 0.00 0.00 0.00 44 1015.2
20260502222002 8 349 1.6 6.4 0.00 0.00 0.00 44 1015.2
20260502221923 8 352 1.6 11.3 0.00 0.00 0.00 43 1015.1
20260502221823 8 351 3.2 11.3 0.00 0.00 0.00 44 1015.1
20260502221702 8 349 3.2 11.3 0.00 0.00 0.00 43 1015.2
20260502221602 8 352 3.2 11.3 0.00 0.00 0.00 45 1015.2
20260502221502 8 350 3.2 11.3 0.00 0.00 0.00 43 1015.2
20260502221402 8 350 3.2 11.3 0.00 0.00 0.00 43 1015.2
20260502221302 8 350 1.6 11.3 0.00 0.00 0.00 43 1015.1
20260502221202 8 349 1.6 11.3 0.00 0.00 0.00 43 1015.1
20260502221102 8 349 1.6 11.3 0.00 0.00 0.00 43 1015.1
20260502221002 8 345 1.6 11.3 0.00 0.00 0.00 43 1015.1
20260502220902 8 341 1.6 4.8 0.00 0.00 0.00 43 1015.1
20260502220802 8 340 1.6 4.8 0.00 0.00 0.00 44 1015.2
20260502220723 8 340 1.6 4.8 0.00 0.00 0.00 43 1015.2
20260502220602 8 338 0.0 4.8 0.00 0.00 0.00 42 1015.2
20260502220523 8 340 0.0 4.8 0.00 0.00 0.00 44 1015.2
20260502220402 8 344 0.0 3.2 0.00 0.00 0.00 43 1015.1
20260502220302 8 344 0.0 3.2 0.00 0.00 0.00 43 1015.1
20260502220202 8 344 0.0 3.2 0.00 0.00 0.00 43 1015.1
20260502220002 8 344 0.0 3.2 0.00 0.00 0.00 43 1015.1
20260502215902 8 344 0.0 3.2 0.00 0.00 0.00 43 1015.1
20260502215823 8 345 0.0 4.8 0.00 0.00 0.00 43 1015.1
20260502215702 8 349 0.0 4.8 0.00 0.00 0.00 44 1015.1
20260502215602 8 349 1.6 4.8 0.00 0.00 0.00 44 1015.2
20260502215503 8 352 1.6 4.8 0.00 0.00 0.00 43 1015.1
20260502215402 8 351 1.6 6.4 0.00 0.00 0.00 44 1015.1
20260502215304 8 351 1.6 6.4 0.00 0.00 0.00 42 1015.1
20260502215202 8 352 1.6 6.4 0.00 0.00 0.00 44 1015.1
20260502215102 8 354 1.6 6.4 0.00 0.00 0.00 43 1015.2
20260502215023 8 354 1.6 6.4 0.00 0.00 0.00 42 1015.2
20260502214923 8 354 1.6 6.4 0.00 0.00 0.00 43 1015.2
20260502214802 8 355 1.6 6.4 0.00 0.00 0.00 43 1015.1
20260502214702 8 353 1.6 6.4 0.00 0.00 0.00 42 1015.1
20260502214602 8 354 1.6 6.4 0.00 0.00 0.00 41 1015.2
20260502214523 8 354 1.6 6.4 0.00 0.00 0.00 41 1015.2
20260502214402 8 358 1.6 4.8 0.00 0.00 0.00 43 1015.2
20260502214303 8 3 1.6 4.8 0.00 0.00 0.00 43 1015.3
20260502214223 8 3 1.6 3.2 0.00 0.00 0.00 44 1015.3
20260502214102 8 2 1.6 3.2 0.00 0.00 0.00 45 1015.2
20260502214002 8 1 1.6 3.2 0.00 0.00 0.00 43 1015.2
20260502213902 8 354 1.6 3.2 0.00 0.00 0.00 45 1015.2
20260502213802 8 350 1.6 3.2 0.00 0.00 0.00 46 1015.3
20260502213703 8 339 1.6 3.2 0.00 0.00 0.00 45 1015.2
20260502213602 8 320 1.6 3.2 0.00 0.00 0.00 46 1015.2
20260502213502 8 305 1.6 3.2 0.00 0.00 0.00 45 1015.3
20260502213423 8 276 1.6 3.2 0.00 0.00 0.00 45 1015.3
20260502213302 8 248 1.6 3.2 0.00 0.00 0.00 45 1015.2
20260502213223 8 266 1.6 4.8 0.00 0.00 0.00 47 1015.2
20260502213124 8 273 1.6 4.8 0.00 0.00 0.00 44 1015.2
20260502213002 8 274 1.6 4.8 0.00 0.00 0.00 45 1015.2
20260502212902 8 249 1.6 4.8 0.00 0.00 0.00 45 1015.2
20260502212802 8 319 1.6 6.4 0.00 0.00 0.00 45 1015.3
20260502212702 8 338 1.6 6.4 0.00 0.00 0.00 46 1015.2
20260502212602 8 342 1.6 6.4 0.00 0.00 0.00 46 1015.2
20260502212502 8 342 1.6 6.4 0.00 0.00 0.00 44 1015.2
20260502212402 8 344 1.6 6.4 0.00 0.00 0.00 45 1015.3
20260502212304 8 343 1.6 6.4 0.00 0.00 0.00 46 1015.3
20260502212202 8 332 1.6 6.4 0.00 0.00 0.00 44 1015.3
20260502212102 8 323 0.0 6.4 0.00 0.00 0.00 44 1015.3
20260502212023 8 322 0.0 6.4 0.00 0.00 0.00 43 1015.3
20260502211902 8 315 1.6 6.4 0.00 0.00 0.00 42 1015.3
20260502211802 8 297 0.0 4.8 0.00 0.00 0.00 44 1015.3
20260502211702 8 269 0.0 3.2 0.00 0.00 0.00 45 1015.3
20260502211602 8 258 0.0 4.8 0.00 0.00 0.00 45 1015.3
20260502211523 8 259 0.0 4.8 0.00 0.00 0.00 44 1015.3
20260502211402 8 269 0.0 4.8 0.00 0.00 0.00 43 1015.3
20260502211302 8 279 1.6 4.8 0.00 0.00 0.00 43 1015.3
20260502211202 8 293 0.0 4.8 0.00 0.00 0.00 42 1015.3
20260502211102 8 293 1.6 4.8 0.00 0.00 0.00 44 1015.3
20260502211002 8 281 1.6 4.8 0.00 0.00 0.00 46 1015.3
20260502210902 8 321 1.6 4.8 0.00 0.00 0.00 48 1015.4
20260502210802 8 330 1.6 4.8 0.00 0.00 0.00 45 1015.4
20260502210702 8 335 1.6 4.8 0.00 0.00 0.00 42 1015.4
20260502210602 8 342 1.6 4.8 0.00 0.00 0.00 42 1015.4
20260502210523 8 341 1.6 4.8 0.00 0.00 0.00 42 1015.4
20260502210402 8 343 1.6 4.8 0.00 0.00 0.00 47 1015.4
20260502210302 8 339 1.6 4.8 0.00 0.00 0.00 47 1015.4
20260502210223 8 339 1.6 4.8 0.00 0.00 0.00 45 1015.5
20260502210123 8 338 1.6 4.8 0.00 0.00 0.00 42 1015.5
20260502210002 8 344 1.6 4.8 0.00 0.00 0.00 44 1015.5
20260502205923 8 341 1.6 4.8 0.00 0.00 0.00 44 1015.5
20260502205823 8 338 0.0 4.8 0.00 0.00 0.00 43 1015.5
20260502205702 8 332 0.0 4.8 0.00 0.00 0.00 43 1015.5
20260502205602 8 340 1.6 4.8 0.00 0.00 0.00 43 1015.5
20260502205502 8 342 1.6 4.8 0.00 0.00 0.00 46 1015.5
20260502205402 8 342 1.6 4.8 0.00 0.00 0.00 43 1015.5
20260502205305 8 346 1.6 4.8 0.00 0.00 0.00 43 1015.5
20260502205202 8 347 1.6 6.4 0.00 0.00 0.00 44 1015.5
20260502205123 8 348 1.6 6.4 0.00 0.00 0.00 44 1015.5
20260502205002 8 348 1.6 6.4 0.00 0.00 0.00 45 1015.5
20260502204902 8 346 1.6 6.4 0.00 0.00 0.00 45 1015.5
20260502204803 8 343 1.6 6.4 0.00 0.00 0.00 45 1015.5
20260502204702 8 343 1.6 6.4 0.00 0.00 0.00 43 1015.5
20260502204602 8 342 1.6 6.4 0.00 0.00 0.00 45 1015.6
20260502204502 8 343 1.6 6.4 0.00 0.00 0.00 43 1015.6
20260502204402 8 343 1.6 6.4 0.00 0.00 0.00 42 1015.5
20260502204302 8 344 1.6 6.4 0.00 0.00 0.00 42 1015.6
20260502204202 8 345 1.6 9.7 0.00 0.00 0.00 44 1015.6
20260502204102 8 345 1.6 9.7 0.00 0.00 0.00 45 1015.6
20260502204002 8 348 3.2 9.7 0.00 0.00 0.00 45 1015.6
20260502203902 8 349 3.2 9.7 0.00 0.00 0.00 45 1015.5
20260502203802 8 353 3.2 9.7 0.00 0.00 0.00 44 1015.5
20260502203702 8 352 3.2 9.7 0.00 0.00 0.00 43 1015.5
20260502203602 8 352 3.2 9.7 0.00 0.00 0.00 43 1015.5
20260502203502 8 350 3.2 9.7 0.00 0.00 0.00 43 1015.6
20260502203423 8 348 3.2 9.7 0.00 0.00 0.00 40 1015.6
20260502203302 8 340 3.2 9.7 0.00 0.00 0.00 41 1015.6
20260502203202 8 334 3.2 8.0 0.00 0.00 0.00 40 1015.6
20260502203102 8 325 3.2 8.0 0.00 0.00 0.00 44 1015.5
20260502203002 8 318 1.6 4.8 0.00 0.00 0.00 45 1015.6
20260502202902 8 334 3.2 8.0 0.00 0.00 0.00 42 1015.6
20260502202802 8 321 1.6 8.0 0.00 0.00 0.00 43 1015.5
20260502202702 8 331 3.2 11.3 0.00 0.00 0.00 43 1015.5
20260502202602 8 337 3.2 11.3 0.00 0.00 0.00 43 1015.5
20260502202523 8 339 3.2 11.3 0.00 0.00 0.00 44 1015.5
20260502202402 8 345 3.2 11.3 0.00 0.00 0.00 43 1015.6
20260502202304 8 347 3.2 11.3 0.00 0.00 0.00 46 1015.7
20260502202202 8 350 3.2 11.3 0.00 0.00 0.00 45 1015.7
20260502202102 8 355 3.2 11.3 0.00 0.00 0.00 44 1015.7
20260502202002 8 350 3.2 11.3 0.00 0.00 0.00 43 1015.7
20260502201902 8 339 3.2 11.3 0.00 0.00 0.00 43 1015.7
20260502201802 8 340 3.2 11.3 0.00 0.00 0.00 42 1015.7
20260502201702 8 339 1.6 9.7 0.00 0.00 0.00 43 1015.8
20260502201602 8 331 1.6 6.4 0.00 0.00 0.00 43 1015.8
20260502201502 8 323 1.6 6.4 0.00 0.00 0.00 44 1015.7
20260502201402 8 330 1.6 6.4 0.00 0.00 0.00 45 1015.7
20260502201302 8 338 1.6 6.4 0.00 0.00 0.00 44 1015.7
20260502201202 8 340 3.2 6.4 0.00 0.00 0.00 45 1015.8
20260502201102 8 340 3.2 8.0 0.00 0.00 0.00 43 1015.8
20260502201003 8 352 3.2 9.7 0.00 0.00 0.00 44 1015.8
20260502200902 8 352 3.2 9.7 0.00 0.00 0.00 43 1015.8
20260502200802 8 350 3.2 9.7 0.00 0.00 0.00 41 1015.8
20260502200702 8 349 3.2 9.7 0.00 0.00 0.00 44 1015.8
20260502200602 8 351 3.2 9.7 0.00 0.00 0.00 43 1015.8
20260502200523 8 353 3.2 9.7 0.00 0.00 0.00 41 1015.8
20260502200402 8 351 3.2 9.7 0.00 0.00 0.00 42 1015.9
20260502200302 8 349 3.2 9.7 0.00 0.00 0.00 44 1015.9
20260502200223 8 350 3.2 9.7 0.00 0.00 0.00 42 1015.9
20260502200124 8 351 1.6 9.7 0.00 0.00 0.00 41 1015.9
20260502200002 8 341 1.6 6.4 0.00 0.00 0.00 42 1016.0
20260502195902 8 348 1.6 6.4 0.00 0.00 0.00 42 1015.9
20260502195802 8 349 1.6 6.4 0.00 0.00 0.00 43 1015.9
20260502195702 8 350 1.6 6.4 0.00 0.00 0.00 44 1016.0
20260502195602 8 350 1.6 6.4 0.00 0.00 0.00 42 1016.0
20260502195503 8 350 1.6 6.4 0.00 0.00 0.00 43 1015.9
20260502195423 8 355 1.6 6.4 0.00 0.00 0.00 43 1015.9
20260502195323 8 354 1.6 6.4 0.00 0.00 0.00 43 1015.9
20260502195202 8 351 1.6 6.4 0.00 0.00 0.00 42 1016.0
20260502195102 8 354 1.6 6.4 0.00 0.00 0.00 43 1016.0
20260502195002 8 358 1.6 6.4 0.00 0.00 0.00 43 1016.0
20260502194902 8 357 1.6 6.4 0.00 0.00 0.00 43 1016.0
20260502194802 8 356 1.6 6.4 0.00 0.00 0.00 42 1016.0
20260502194723 8 355 1.6 6.4 0.00 0.00 0.00 44 1016.1
20260502194623 8 355 1.6 6.4 0.00 0.00 0.00 44 1016.1
20260502194502 8 353 1.6 9.7 0.00 0.00 0.00 42 1016.1
20260502194423 8 352 1.6 9.7 0.00 0.00 0.00 44 1016.2
20260502194302 8 349 1.6 9.7 0.00 0.00 0.00 43 1016.2
20260502194202 8 349 1.6 9.7 0.00 0.00 0.00 42 1016.2
20260502194102 8 348 3.2 9.7 0.00 0.00 0.00 42 1016.2
20260502194002 8 346 3.2 9.7 0.00 0.00 0.00 42 1016.2
20260502193923 8 346 3.2 9.7 0.00 0.00 0.00 42 1016.2
20260502193802 8 343 3.2 9.7 0.00 0.00 0.00 41 1016.2
20260502193702 8 340 3.2 9.7 0.00 0.00 0.00 44 1016.2
20260502193623 8 339 3.2 9.7 0.00 0.00 0.00 40 1016.2
20260502193502 8 341 3.2 8.0 0.00 0.00 0.00 41 1016.2
20260502193423 8 339 1.6 8.0 0.00 0.00 0.00 42 1016.2
20260502193302 8 332 1.6 8.0 0.00 0.00 0.00 43 1016.2
20260502193202 8 324 1.6 8.0 0.00 0.00 0.00 44 1016.2
20260502193102 8 301 1.6 8.0 0.00 0.00 0.00 40 1016.2
20260502193002 8 280 1.6 8.0 0.00 0.00 0.00 40 1016.2
20260502192902 9 269 1.6 8.0 0.00 0.00 0.00 40 1016.2
20260502192823 9 260 1.6 8.0 0.00 0.00 0.00 41 1016.2
20260502192702 9 238 1.6 12.9 0.00 0.00 0.00 42 1016.1
20260502192602 9 233 1.6 12.9 0.00 0.00 0.00 42 1016.2
20260502192502 9 231 1.6 12.9 0.00 0.00 0.00 42 1016.2
20260502192402 9 237 1.6 12.9 0.00 0.00 0.00 42 1016.1
20260502192305 9 242 1.6 12.9 0.00 0.00 0.00 39 1016.0
20260502192202 9 250 1.6 12.9 0.00 0.00 0.00 40 1016.0
20260502192103 9 257 1.6 12.9 0.00 0.00 0.00 40 1016.2
20260502192002 9 272 1.6 12.9 0.00 0.00 0.00 40 1016.2
20260502191902 9 272 1.6 12.9 0.00 0.00 0.00 40 1016.2
20260502191823 9 271 1.6 12.9 0.00 0.00 0.00 41 1016.2
20260502191702 8 313 1.6 6.4 0.00 0.00 0.00 45 1016.2
20260502191602 8 310 1.6 6.4 0.00 0.00 0.00 45 1016.3
20260502191502 8 316 1.6 6.4 0.00 0.00 0.00 43 1016.3
20260502191402 8 316 1.6 8.0 0.00 0.00 0.00 41 1016.3
20260502191302 8 333 1.6 9.7 0.00 0.00 0.00 43 1016.3
20260502191203 8 345 1.6 9.7 0.00 0.00 0.00 43 1016.3
20260502191102 8 344 1.6 9.7 0.00 0.00 0.00 43 1016.3
20260502191002 8 323 3.2 9.7 0.00 0.00 0.00 44 1016.3
20260502190902 8 321 3.2 9.7 0.00 0.00 0.00 43 1016.3
20260502190802 8 311 3.2 9.7 0.00 0.00 0.00 43 1016.3
20260502190702 8 298 3.2 9.7 0.00 0.00 0.00 42 1016.3
20260502190602 8 295 3.2 9.7 0.00 0.00 0.00 41 1016.3
20260502190502 8 303 3.2 9.7 0.00 0.00 0.00 41 1016.3
20260502190423 8 301 3.2 9.7 0.00 0.00 0.00 40 1016.3
20260502190302 8 292 3.2 9.7 0.00 0.00 0.00 42 1016.3
20260502190223 8 278 3.2 8.0 0.00 0.00 0.00 42 1016.3
20260502190002 8 318 3.2 9.7 0.00 0.00 0.00 42 1016.4
20260502185902 8 333 3.2 9.7 0.00 0.00 0.00 43 1016.4
20260502185802 8 342 3.2 9.7 0.00 0.00 0.00 45 1016.4
20260502185702 8 342 3.2 9.7 0.00 0.00 0.00 45 1016.5
20260502185602 8 345 3.2 9.7 0.00 0.00 0.00 43 1016.5
20260502185502 8 344 3.2 9.7 0.00 0.00 0.00 42 1016.5
20260502185423 8 345 3.2 9.7 0.00 0.00 0.00 43 1016.5
20260502185305 8 345 3.2 9.7 0.00 0.00 0.00 44 1016.4
20260502185223 8 345 3.2 9.7 0.00 0.00 0.00 45 1016.4